Time,TemperatureF,DewpointF,PressureIn,WindDirection,WindDirectionDegrees,WindSpeedMPH,WindSpeedGustMPH,Humidity,HourlyPrecipIn,Conditions,Clouds,dailyrainin,SoftwareType,DateUTC
2013-03-13 00:02:00,28.0,25.0,30.77,NNE,22,0.0,2.0,88,0.00,,,0.00,meteohub,2013-03-13 06:02:00,
2013-03-13 00:07:00,28.0,25.0,30.77,ESE,112,2.0,2.0,88,0.00,,,0.00,meteohub,2013-03-13 06:07:00,
2013-03-13 00:12:00,28.2,25.2,30.77,WNW,292,2.0,3.0,88,0.00,,,0.00,meteohub,2013-03-13 06:12:00,
2013-03-13 00:17:00,27.9,24.4,30.77,NNE,22,1.0,3.0,87,0.00,,,0.00,meteohub,2013-03-13 06:17:00,
2013-03-13 00:22:00,28.2,25.2,30.77,SSW,202,1.0,3.0,88,0.00,,,0.00,meteohub,2013-03-13 06:22:00,
2013-03-13 00:27:00,28.0,25.2,30.77,NNW,338,3.0,3.0,89,0.00,,,0.00,meteohub,2013-03-13 06:27:00,
2013-03-13 00:32:00,28.0,25.2,30.77,SSE,158,2.0,3.0,89,0.00,,,0.00,meteohub,2013-03-13 06:32:00,
2013-03-13 00:37:00,28.2,25.7,30.80,SE,135,2.0,4.0,90,0.00,,,0.00,meteohub,2013-03-13 06:37:00,
2013-03-13 00:43:00,28.0,25.2,30.80,ESE,112,4.0,4.0,89,0.00,,,0.00,meteohub,2013-03-13 06:43:00,
2013-03-13 00:48:00,28.4,25.9,30.80,ENE,68,3.0,6.0,90,0.00,,,0.00,meteohub,2013-03-13 06:48:00,
2013-03-13 00:53:00,29.5,27.0,30.77,ESE,112,4.0,6.0,90,0.00,,,0.00,meteohub,2013-03-13 06:53:00,
2013-03-13 00:58:00,30.2,27.1,30.77,ESE,112,4.0,7.0,88,0.00,,,0.00,meteohub,2013-03-13 06:58:00,
2013-03-13 01:03:00,30.6,26.6,30.77,WNW,292,2.0,10.0,85,0.00,,,0.00,meteohub,2013-03-13 07:03:00,
2013-03-13 01:08:00,30.9,26.6,30.77,SSE,158,2.0,10.0,84,0.00,,,0.00,meteohub,2013-03-13 07:08:00,
2013-03-13 01:13:00,31.3,26.8,30.77,ENE,68,5.0,10.0,83,0.00,,,0.00,meteohub,2013-03-13 07:13:00,
2013-03-13 01:19:00,30.6,25.2,30.77,NNW,338,3.0,6.0,80,0.00,,,0.00,meteohub,2013-03-13 07:19:00,
2013-03-13 01:24:00,30.2,25.2,30.77,NNW,338,2.0,6.0,81,0.00,,,0.00,meteohub,2013-03-13 07:24:00,
2013-03-13 01:29:00,30.0,25.2,30.77,NNW,338,2.0,6.0,82,0.00,,,0.00,meteohub,2013-03-13 07:29:00,
2013-03-13 01:34:00,29.7,25.2,30.77,WNW,292,1.0,6.0,83,0.00,,,0.00,meteohub,2013-03-13 07:34:00,
2013-03-13 01:39:00,28.8,23.9,30.77,NNW,338,0.0,3.0,82,0.00,,,0.00,meteohub,2013-03-13 07:39:00,
2013-03-13 01:44:00,28.6,24.1,30.77,ESE,112,3.0,4.0,83,0.00,,,0.00,meteohub,2013-03-13 07:44:00,
2013-03-13 01:50:00,28.8,24.6,30.77,NNE,22,1.0,4.0,84,0.00,,,0.00,meteohub,2013-03-13 07:50:00,
2013-03-13 01:55:00,28.9,25.3,30.77,SSW,202,2.0,3.0,86,0.00,,,0.00,meteohub,2013-03-13 07:55:00,
2013-03-13 02:00:00,28.6,25.0,30.77,East,90,5.0,5.0,86,0.00,,,0.00,meteohub,2013-03-13 08:00:00,
2013-03-13 02:08:00,29.3,25.7,30.74,ESE,112,2.0,5.0,86,0.00,,,0.00,meteohub,2013-03-13 08:08:00,
2013-03-13 02:22:00,29.3,25.7,30.74,NE,45,2.0,2.0,86,0.00,,,0.00,meteohub,2013-03-13 08:22:00,
2013-03-13 02:39:00,28.6,25.2,-100.00,ESE,112,4.0,4.0,87,0.00,,,0.00,meteohub,2013-03-13 08:39:00,
2013-03-13 02:45:00,30.0,27.0,30.74,WNW,292,3.0,4.0,88,0.00,,,0.00,meteohub,2013-03-13 08:45:00,
2013-03-13 02:52:00,29.5,26.1,30.74,North,-999,-999.0,4.0,87,0.00,,,0.00,meteohub,2013-03-13 08:52:00,
2013-03-13 02:57:00,29.5,26.1,30.74,NNW,338,9.0,9.0,87,0.00,,,0.00,meteohub,2013-03-13 08:57:00,
2013-03-13 03:02:00,29.3,26.2,30.74,SSW,202,4.0,9.0,88,0.00,,,0.00,meteohub,2013-03-13 09:02:00,
2013-03-13 03:08:00,28.9,25.9,30.74,WNW,292,3.0,9.0,88,0.00,,,0.00,meteohub,2013-03-13 09:08:00,
2013-03-13 03:13:00,28.8,25.7,30.74,NNW,338,3.0,9.0,88,0.00,,,0.00,meteohub,2013-03-13 09:13:00,
2013-03-13 03:18:00,28.4,25.3,30.74,NNW,338,2.0,5.0,88,0.00,,,0.00,meteohub,2013-03-13 09:18:00,
2013-03-13 03:24:00,28.2,25.2,30.74,SSW,202,4.0,5.0,88,0.00,,,0.00,meteohub,2013-03-13 09:24:00,
2013-03-13 03:29:00,27.9,24.8,30.74,NNE,22,3.0,4.0,88,0.00,,,0.00,meteohub,2013-03-13 09:29:00,
2013-03-13 03:34:00,27.7,24.8,30.74,SE,135,2.0,4.0,89,0.00,,,0.00,meteohub,2013-03-13 09:34:00,
2013-03-13 03:39:00,27.7,24.8,30.74,WNW,292,5.0,6.0,89,0.00,,,0.00,meteohub,2013-03-13 09:39:00,
2013-03-13 03:45:00,27.3,24.4,30.74,NNE,22,1.0,6.0,89,0.00,,,0.00,meteohub,2013-03-13 09:45:00,
2013-03-13 03:50:00,28.0,25.5,30.74,WNW,292,6.0,6.0,90,0.00,,,0.00,meteohub,2013-03-13 09:50:00,
2013-03-13 03:55:00,28.6,25.2,30.74,SSW,202,2.0,10.0,87,0.00,,,0.00,meteohub,2013-03-13 09:55:00,
2013-03-13 04:00:00,28.2,24.8,30.74,SSW,202,3.0,10.0,87,0.00,,,0.00,meteohub,2013-03-13 10:00:00,
2013-03-13 04:05:00,27.9,24.4,30.74,NNW,338,5.0,10.0,87,0.00,,,0.00,meteohub,2013-03-13 10:05:00,
2013-03-13 04:10:00,27.7,24.6,30.74,ENE,68,2.0,6.0,88,0.00,,,0.00,meteohub,2013-03-13 10:10:00,
2013-03-13 04:15:00,27.7,24.8,30.74,NNE,22,2.0,6.0,89,0.00,,,0.00,meteohub,2013-03-13 10:15:00,
2013-03-13 04:21:00,28.0,25.5,30.74,WNW,292,3.0,6.0,90,0.00,,,0.00,meteohub,2013-03-13 10:21:00,
2013-03-13 04:26:00,27.9,25.3,30.74,NNW,338,1.0,6.0,90,0.00,,,0.00,meteohub,2013-03-13 10:26:00,
2013-03-13 04:31:00,28.9,26.1,30.74,NW,315,6.0,6.0,89,0.00,,,0.00,meteohub,2013-03-13 10:31:00,
2013-03-13 04:37:00,29.3,26.2,30.74,NNW,338,6.0,10.0,88,0.00,,,0.00,meteohub,2013-03-13 10:37:00,
2013-03-13 04:42:00,30.6,26.2,30.74,NNW,338,9.0,12.0,84,0.00,,,0.00,meteohub,2013-03-13 10:42:00,
2013-03-13 04:47:00,29.5,25.0,30.74,WNW,292,6.0,13.0,83,0.00,,,0.00,meteohub,2013-03-13 10:47:00,
2013-03-13 04:52:00,28.8,24.8,30.74,NNW,338,10.0,13.0,85,0.00,,,0.00,meteohub,2013-03-13 10:52:00,
2013-03-13 04:57:00,28.6,25.0,30.74,WSW,248,10.0,13.0,86,0.00,,,0.00,meteohub,2013-03-13 10:57:00,
2013-03-13 05:02:00,28.9,25.5,30.74,NNW,338,7.0,13.0,87,0.00,,,0.00,meteohub,2013-03-13 11:02:00,
2013-03-13 05:07:00,28.6,25.2,30.74,NNE,22,5.0,13.0,87,0.00,,,0.00,meteohub,2013-03-13 11:07:00,
2013-03-13 05:12:00,28.6,25.2,30.74,ENE,68,3.0,13.0,87,0.00,,,0.00,meteohub,2013-03-13 11:12:00,
2013-03-13 05:17:00,28.6,25.0,30.74,ENE,68,0.0,10.0,86,0.00,,,0.00,meteohub,2013-03-13 11:17:00,
2013-03-13 05:23:00,28.2,24.6,30.74,NNW,338,4.0,10.0,86,0.00,,,0.00,meteohub,2013-03-13 11:23:00,
2013-03-13 05:28:00,28.6,24.6,30.74,NNE,22,1.0,4.0,85,0.00,,,0.00,meteohub,2013-03-13 11:28:00,
2013-03-13 05:33:00,28.8,24.8,30.74,WNW,292,2.0,6.0,85,0.00,,,0.00,meteohub,2013-03-13 11:33:00,
2013-03-13 05:39:00,28.6,24.1,30.77,NNE,22,3.0,6.0,83,0.00,,,0.00,meteohub,2013-03-13 11:39:00,
2013-03-13 05:44:00,27.7,23.0,30.77,ESE,112,4.0,7.0,82,0.00,,,0.00,meteohub,2013-03-13 11:44:00,
2013-03-13 05:49:00,28.0,24.1,30.77,ENE,68,1.0,7.0,85,0.00,,,0.00,meteohub,2013-03-13 11:49:00,
2013-03-13 05:55:00,28.0,24.4,30.77,ESE,112,2.0,7.0,86,0.00,,,0.00,meteohub,2013-03-13 11:55:00,
2013-03-13 06:00:00,28.9,25.3,30.77,ENE,68,2.0,6.0,86,0.00,,,0.00,meteohub,2013-03-13 12:00:00,
2013-03-13 06:05:00,30.0,26.1,30.77,NNW,338,3.0,6.0,85,0.00,,,0.00,meteohub,2013-03-13 12:05:00,
2013-03-13 06:10:00,29.3,23.9,30.77,NNW,338,4.0,6.0,80,0.00,,,0.00,meteohub,2013-03-13 12:10:00,
2013-03-13 06:15:00,30.4,25.3,30.77,SSW,202,5.0,7.0,81,0.00,,,0.00,meteohub,2013-03-13 12:15:00,
2013-03-13 06:21:00,30.0,24.3,30.77,SSW,202,4.0,7.0,79,0.00,,,0.00,meteohub,2013-03-13 12:21:00,
2013-03-13 06:26:00,30.6,24.8,30.77,East,90,4.0,9.0,79,0.00,,,0.00,meteohub,2013-03-13 12:26:00,
2013-03-13 06:31:00,30.7,25.0,30.77,South,180,5.0,9.0,79,0.00,,,0.00,meteohub,2013-03-13 12:31:00,
2013-03-13 06:37:00,31.1,24.4,30.77,ENE,68,3.0,9.0,76,0.00,,,0.00,meteohub,2013-03-13 12:37:00,
2013-03-13 06:42:00,30.9,24.3,30.77,NNW,338,2.0,6.0,76,0.00,,,0.00,meteohub,2013-03-13 12:42:00,
2013-03-13 06:47:00,29.7,23.0,30.77,ENE,68,4.0,6.0,76,0.00,,,0.00,meteohub,2013-03-13 12:47:00,
2013-03-13 06:52:00,30.7,24.4,30.74,WNW,292,3.0,8.0,77,0.00,,,0.00,meteohub,2013-03-13 12:52:00,
2013-03-13 06:57:00,29.7,23.4,30.74,East,90,5.0,8.0,77,0.00,,,0.00,meteohub,2013-03-13 12:57:00,
2013-03-13 07:02:00,30.2,23.9,30.74,ESE,112,1.0,6.0,77,0.00,,,0.00,meteohub,2013-03-13 13:02:00,
2013-03-13 07:08:00,29.8,23.9,30.77,WNW,292,4.0,6.0,78,0.00,,,0.00,meteohub,2013-03-13 13:08:00,
2013-03-13 07:13:00,30.6,24.6,30.77,ESE,112,4.0,6.0,78,0.00,,,0.00,meteohub,2013-03-13 13:13:00,
2013-03-13 07:18:00,31.1,25.0,30.77,NW,315,3.0,6.0,78,0.00,,,0.00,meteohub,2013-03-13 13:18:00,
2013-03-13 07:23:00,32.2,25.5,30.77,NNE,22,3.0,6.0,76,0.00,,,0.00,meteohub,2013-03-13 13:23:00,
2013-03-13 07:29:00,32.5,25.9,30.77,ESE,112,0.0,5.0,76,0.00,,,0.00,meteohub,2013-03-13 13:29:00,
2013-03-13 07:34:00,33.8,25.2,30.77,NNW,338,4.0,4.0,70,0.00,,,0.00,meteohub,2013-03-13 13:34:00,
2013-03-13 07:39:00,34.3,25.3,30.77,NNW,338,3.0,6.0,69,0.00,,,0.00,meteohub,2013-03-13 13:39:00,
2013-03-13 07:44:00,35.1,24.4,30.77,SSW,202,2.0,6.0,65,0.00,,,0.00,meteohub,2013-03-13 13:44:00,
2013-03-13 07:49:00,34.9,24.6,30.77,NNW,338,2.0,7.0,66,0.00,,,0.00,meteohub,2013-03-13 13:49:00,
2013-03-13 07:54:00,34.9,25.0,30.77,NNW,338,1.0,7.0,67,0.00,,,0.00,meteohub,2013-03-13 13:54:00,
2013-03-13 08:00:00,34.7,25.0,30.77,South,180,1.0,7.0,67,0.00,,,0.00,meteohub,2013-03-13 14:00:00,
2013-03-13 08:05:00,35.1,24.8,30.77,NNE,22,5.0,5.0,66,0.00,,,0.00,meteohub,2013-03-13 14:05:00,
2013-03-13 08:10:00,35.6,25.0,30.77,ENE,68,3.0,5.0,65,0.00,,,0.00,meteohub,2013-03-13 14:10:00,
2013-03-13 08:15:00,35.6,25.0,30.77,NE,45,1.0,5.0,65,0.00,,,0.00,meteohub,2013-03-13 14:15:00,
2013-03-13 08:20:00,35.6,25.0,30.77,WSW,248,3.0,5.0,65,0.00,,,0.00,meteohub,2013-03-13 14:20:00,
2013-03-13 08:26:00,37.0,26.8,30.77,NNW,338,4.0,5.0,66,0.00,,,0.00,meteohub,2013-03-13 14:26:00,
2013-03-13 08:31:00,38.5,27.0,30.77,WNW,292,2.0,6.0,63,0.00,,,0.00,meteohub,2013-03-13 14:31:00,
2013-03-13 08:36:00,39.4,26.6,30.77,NNE,22,4.0,6.0,60,0.00,,,0.00,meteohub,2013-03-13 14:36:00,
2013-03-13 08:42:00,40.5,26.1,30.77,NNW,338,3.0,8.0,56,0.00,,,0.00,meteohub,2013-03-13 14:42:00,
2013-03-13 08:47:00,41.9,27.9,30.77,WSW,248,3.0,8.0,57,0.00,,,0.00,meteohub,2013-03-13 14:47:00,
2013-03-13 08:52:00,42.4,28.4,30.80,ESE,112,2.0,8.0,57,0.00,,,0.00,meteohub,2013-03-13 14:52:00,
2013-03-13 08:57:00,43.5,29.3,30.80,WNW,292,2.0,6.0,57,0.00,,,0.00,meteohub,2013-03-13 14:57:00,
2013-03-13 09:02:00,44.1,28.9,30.80,WNW,292,2.0,5.0,55,0.00,,,0.00,meteohub,2013-03-13 15:02:00,
2013-03-13 09:07:00,45.3,30.2,30.80,East,90,2.0,5.0,55,0.00,,,0.00,meteohub,2013-03-13 15:07:00,
2013-03-13 09:12:00,46.2,29.7,30.80,WNW,292,4.0,5.0,52,0.00,,,0.00,meteohub,2013-03-13 15:12:00,
2013-03-13 09:18:00,46.4,28.4,30.80,NNW,338,6.0,6.0,49,0.00,,,0.00,meteohub,2013-03-13 15:18:00,
2013-03-13 09:23:00,46.9,28.4,30.80,NNW,338,4.0,6.0,48,0.00,,,0.00,meteohub,2013-03-13 15:23:00,
2013-03-13 09:28:00,45.1,27.1,30.80,NNW,338,8.0,8.0,49,0.00,,,0.00,meteohub,2013-03-13 15:28:00,
2013-03-13 09:33:00,45.9,27.3,30.83,NNW,338,6.0,11.0,48,0.00,,,0.00,meteohub,2013-03-13 15:33:00,
2013-03-13 09:39:00,45.7,27.7,30.83,NNW,338,4.0,11.0,49,0.00,,,0.00,meteohub,2013-03-13 15:39:00,
2013-03-13 09:44:00,45.7,28.6,30.83,NNE,22,5.0,11.0,51,0.00,,,0.00,meteohub,2013-03-13 15:44:00,
2013-03-13 09:49:00,46.8,29.1,30.83,NNW,338,6.0,8.0,50,0.00,,,0.00,meteohub,2013-03-13 15:49:00,
2013-03-13 09:54:00,46.2,28.2,30.83,North,0,6.0,6.0,49,0.00,,,0.00,meteohub,2013-03-13 15:54:00,
2013-03-13 10:00:00,46.0,27.5,30.83,NNW,338,9.0,9.0,48,0.00,,,0.00,meteohub,2013-03-13 16:00:00,
2013-03-13 10:05:00,46.2,27.7,30.83,NNW,338,9.0,9.0,48,0.00,,,0.00,meteohub,2013-03-13 16:05:00,
2013-03-13 10:10:00,46.4,27.9,30.83,NNW,338,6.0,10.0,48,0.00,,,0.00,meteohub,2013-03-13 16:10:00,
2013-03-13 10:16:00,46.8,28.2,30.83,NNW,338,11.0,11.0,48,0.00,,,0.00,meteohub,2013-03-13 16:16:00,
2013-03-13 10:21:00,46.9,28.4,30.83,NNE,22,6.0,11.0,48,0.00,,,0.00,meteohub,2013-03-13 16:21:00,
2013-03-13 10:26:00,47.7,28.4,30.83,NNE,22,11.0,11.0,47,0.00,,,0.00,meteohub,2013-03-13 16:26:00,
2013-03-13 10:32:00,48.2,28.9,30.83,NNW,338,7.0,12.0,47,0.00,,,0.00,meteohub,2013-03-13 16:32:00,
2013-03-13 10:37:00,49.3,29.5,30.83,NNE,22,3.0,12.0,46,0.00,,,0.00,meteohub,2013-03-13 16:37:00,
2013-03-13 10:42:00,50.2,29.7,30.83,NNW,338,6.0,12.0,45,0.00,,,0.00,meteohub,2013-03-13 16:42:00,
2013-03-13 10:47:00,51.4,30.9,30.83,NNW,338,5.0,11.0,45,0.00,,,0.00,meteohub,2013-03-13 16:47:00,
2013-03-13 10:52:00,52.3,31.6,30.83,SSW,202,0.0,8.0,45,0.00,,,0.00,meteohub,2013-03-13 16:52:00,
2013-03-13 10:57:00,53.1,31.8,30.83,NNW,338,3.0,8.0,44,0.00,,,0.00,meteohub,2013-03-13 16:57:00,
2013-03-13 11:02:00,54.0,31.5,30.83,ESE,112,7.0,8.0,42,0.00,,,0.00,meteohub,2013-03-13 17:02:00,
2013-03-13 11:07:00,54.5,32.0,30.83,ENE,68,4.0,7.0,42,0.00,,,0.00,meteohub,2013-03-13 17:07:00,
2013-03-13 11:12:00,54.0,30.9,30.83,SSE,158,2.0,7.0,41,0.05,,,0.05,meteohub,2013-03-13 17:12:00,
2013-03-13 11:18:00,55.2,31.3,30.83,SSE,158,6.0,7.0,40,0.05,,,0.05,meteohub,2013-03-13 17:18:00,
2013-03-13 11:23:00,56.1,32.2,30.80,East,90,3.0,7.0,40,0.05,,,0.05,meteohub,2013-03-13 17:23:00,
2013-03-13 11:28:00,57.0,33.6,30.80,SSE,158,0.0,7.0,41,0.05,,,0.05,meteohub,2013-03-13 17:28:00,
2013-03-13 11:33:00,56.8,32.9,30.80,SSE,158,6.0,6.0,40,0.05,,,0.05,meteohub,2013-03-13 17:33:00,
2013-03-13 11:39:00,56.7,32.7,30.83,SSE,158,3.0,9.0,40,0.05,,,0.05,meteohub,2013-03-13 17:39:00,
2013-03-13 11:44:00,57.4,33.3,30.83,SE,135,4.0,9.0,40,0.05,,,0.05,meteohub,2013-03-13 17:44:00,
2013-03-13 11:49:00,56.7,32.7,30.80,SSE,158,8.0,9.0,40,0.09,,,0.09,meteohub,2013-03-13 17:49:00,
2013-03-13 11:54:00,55.9,32.0,30.80,SSE,158,7.0,10.0,40,0.09,,,0.09,meteohub,2013-03-13 17:54:00,
2013-03-13 12:00:00,55.0,31.3,30.80,SSW,202,7.0,10.0,40,0.09,,,0.09,meteohub,2013-03-13 18:00:00,
2013-03-13 12:05:00,55.8,31.3,30.80,SE,135,5.0,11.0,39,0.09,,,0.09,meteohub,2013-03-13 18:05:00,
2013-03-13 12:10:00,55.8,31.8,30.80,South,180,10.0,11.0,40,0.04,,,0.09,meteohub,2013-03-13 18:10:00,
2013-03-13 12:15:00,55.4,32.7,30.80,SSE,158,8.0,10.0,42,0.04,,,0.09,meteohub,2013-03-13 18:15:00,
2013-03-13 12:20:00,55.0,31.8,30.83,SSW,202,10.0,11.0,41,0.04,,,0.09,meteohub,2013-03-13 18:20:00,
2013-03-13 12:25:00,55.4,32.2,30.83,SSE,158,6.0,11.0,41,0.04,,,0.09,meteohub,2013-03-13 18:25:00,
2013-03-13 12:31:00,53.4,30.9,30.83,SSE,158,9.0,11.0,42,0.04,,,0.09,meteohub,2013-03-13 18:31:00,
2013-03-13 12:36:00,52.0,29.7,30.83,SSE,158,5.0,11.0,42,0.04,,,0.09,meteohub,2013-03-13 18:36:00,
2013-03-13 12:41:00,51.6,29.8,30.83,SSE,158,5.0,9.0,43,0.04,,,0.09,meteohub,2013-03-13 18:41:00,
2013-03-13 12:47:00,53.4,31.5,30.83,SSE,158,9.0,9.0,43,0.00,,,0.09,meteohub,2013-03-13 18:47:00,
2013-03-13 12:52:00,54.5,32.0,30.80,SSE,158,7.0,9.0,42,0.00,,,0.09,meteohub,2013-03-13 18:52:00,
2013-03-13 12:57:00,56.3,33.6,30.80,SSE,158,5.0,9.0,42,0.00,,,0.09,meteohub,2013-03-13 18:57:00,
2013-03-13 13:02:00,56.7,34.5,30.80,SSE,158,9.0,10.0,43,0.00,,,0.09,meteohub,2013-03-13 19:02:00,
2013-03-13 13:07:00,57.7,34.2,30.83,SSE,158,6.0,12.0,41,0.00,,,0.09,meteohub,2013-03-13 19:07:00,
2013-03-13 13:12:00,57.7,34.2,30.83,SSE,158,8.0,12.0,41,0.00,,,0.09,meteohub,2013-03-13 19:12:00,
2013-03-13 13:17:00,58.1,33.3,30.83,SSE,158,5.0,12.0,39,0.00,,,0.09,meteohub,2013-03-13 19:17:00,
2013-03-13 13:22:00,58.1,34.0,30.83,SSE,158,8.0,11.0,40,0.00,,,0.09,meteohub,2013-03-13 19:22:00,
2013-03-13 13:27:00,57.9,33.8,30.83,SSE,158,6.0,9.0,40,0.00,,,0.09,meteohub,2013-03-13 19:27:00,
2013-03-13 13:33:00,59.5,34.5,30.83,SSE,158,7.0,9.0,39,0.00,,,0.09,meteohub,2013-03-13 19:33:00,
2013-03-13 13:38:00,59.9,35.6,30.83,SSW,202,6.0,9.0,40,0.00,,,0.09,meteohub,2013-03-13 19:38:00,
2013-03-13 13:44:00,59.2,34.9,30.83,SSE,158,8.0,11.0,40,0.00,,,0.09,meteohub,2013-03-13 19:44:00,
2013-03-13 13:49:00,59.4,34.5,30.83,SSE,158,10.0,11.0,39,0.00,,,0.09,meteohub,2013-03-13 19:49:00,
2013-03-13 13:54:00,59.9,34.9,30.83,SSE,158,7.0,11.0,39,0.00,,,0.09,meteohub,2013-03-13 19:54:00,
2013-03-13 13:59:00,60.6,35.6,30.83,SSE,158,9.0,10.0,39,0.00,,,0.09,meteohub,2013-03-13 19:59:00,
2013-03-13 14:05:00,59.9,34.9,30.80,South,180,4.0,10.0,39,0.00,,,0.09,meteohub,2013-03-13 20:05:00,
2013-03-13 14:10:00,59.2,34.3,30.80,SSE,158,13.0,13.0,39,0.00,,,0.09,meteohub,2013-03-13 20:10:00,
2013-03-13 14:15:00,57.6,32.9,30.80,South,180,8.0,13.0,39,0.00,,,0.09,meteohub,2013-03-13 20:15:00,
2013-03-13 14:20:00,57.7,33.6,30.80,SSE,158,10.0,13.0,40,0.00,,,0.09,meteohub,2013-03-13 20:20:00,
2013-03-13 14:26:00,59.9,34.9,30.80,SSW,202,10.0,13.0,39,0.00,,,0.09,meteohub,2013-03-13 20:26:00,
2013-03-13 14:31:00,60.1,33.8,30.80,South,180,6.0,11.0,37,0.00,,,0.09,meteohub,2013-03-13 20:31:00,
2013-03-13 14:36:00,59.5,34.0,30.80,SSE,158,5.0,11.0,38,0.00,,,0.09,meteohub,2013-03-13 20:36:00,
2013-03-13 14:41:00,61.5,35.8,30.80,SSE,158,13.0,13.0,38,0.00,,,0.09,meteohub,2013-03-13 20:41:00,
2013-03-13 14:47:00,61.5,34.3,30.80,SSE,158,6.0,13.0,36,0.00,,,0.09,meteohub,2013-03-13 20:47:00,
2013-03-13 14:52:00,62.1,33.4,30.80,SSE,158,6.0,13.0,34,0.00,,,0.09,meteohub,2013-03-13 20:52:00,
2013-03-13 14:57:00,62.6,34.5,30.80,SSE,158,8.0,13.0,35,0.00,,,0.09,meteohub,2013-03-13 20:57:00,
2013-03-13 15:02:00,63.7,35.6,30.80,SSE,158,9.0,13.0,35,0.00,,,0.09,meteohub,2013-03-13 21:02:00,
2013-03-13 15:07:00,63.9,36.5,30.77,SSE,158,4.0,13.0,36,0.00,,,0.09,meteohub,2013-03-13 21:07:00,
2013-03-13 15:12:00,63.0,34.9,30.77,SSE,158,6.0,12.0,35,0.00,,,0.09,meteohub,2013-03-13 21:12:00,
2013-03-13 15:17:00,62.6,34.5,30.77,SSE,158,6.0,12.0,35,0.00,,,0.09,meteohub,2013-03-13 21:17:00,
2013-03-13 15:22:00,63.7,35.6,30.77,SSE,158,5.0,13.0,35,0.00,,,0.09,meteohub,2013-03-13 21:22:00,
2013-03-13 15:27:00,63.9,35.8,30.77,South,180,6.0,13.0,35,0.00,,,0.09,meteohub,2013-03-13 21:27:00,
2013-03-13 15:32:00,64.4,36.1,30.77,ESE,112,9.0,12.0,35,0.00,,,0.09,meteohub,2013-03-13 21:32:00,
2013-03-13 15:37:00,64.2,36.7,30.77,SSE,158,5.0,12.0,36,0.00,,,0.09,meteohub,2013-03-13 21:37:00,
2013-03-13 15:42:00,65.5,36.3,30.77,SSE,158,6.0,12.0,34,0.00,,,0.09,meteohub,2013-03-13 21:42:00,
2013-03-13 15:48:00,65.7,37.2,30.77,SSE,158,6.0,9.0,35,0.00,,,0.09,meteohub,2013-03-13 21:48:00,
2013-03-13 15:53:00,65.8,37.4,30.77,SSE,158,6.0,9.0,35,0.00,,,0.09,meteohub,2013-03-13 21:53:00,
2013-03-13 15:58:00,65.5,37.2,30.77,SSE,158,7.0,9.0,35,0.00,,,0.09,meteohub,2013-03-13 21:58:00,
2013-03-13 16:03:00,64.9,36.0,30.77,SSE,158,6.0,9.0,34,0.00,,,0.09,meteohub,2013-03-13 22:03:00,
2013-03-13 16:09:00,63.9,35.8,30.77,SSE,158,4.0,9.0,35,0.00,,,0.09,meteohub,2013-03-13 22:09:00,
2013-03-13 16:14:00,62.6,34.5,30.77,SSE,158,5.0,9.0,35,0.00,,,0.09,meteohub,2013-03-13 22:14:00,
2013-03-13 16:19:00,62.6,34.5,30.77,SSE,158,7.0,9.0,35,0.00,,,0.09,meteohub,2013-03-13 22:19:00,
2013-03-13 16:24:00,64.4,35.4,30.77,SSW,202,6.0,8.0,34,0.00,,,0.09,meteohub,2013-03-13 22:24:00,
2013-03-13 16:29:00,64.9,36.7,30.77,SSE,158,6.0,7.0,35,0.00,,,0.09,meteohub,2013-03-13 22:29:00,
2013-03-13 16:34:00,65.3,36.3,30.77,SSW,202,6.0,7.0,34,0.00,,,0.09,meteohub,2013-03-13 22:34:00,
2013-03-13 16:40:00,66.6,37.4,30.77,SE,135,3.0,6.0,34,0.00,,,0.09,meteohub,2013-03-13 22:40:00,
2013-03-13 16:45:00,66.4,36.5,30.77,WSW,248,1.0,6.0,33,0.00,,,0.09,meteohub,2013-03-13 22:45:00,
2013-03-13 16:50:00,66.4,36.5,30.77,ESE,112,3.0,6.0,33,0.00,,,0.09,meteohub,2013-03-13 22:50:00,
2013-03-13 16:55:00,68.2,37.9,30.77,WSW,248,2.0,6.0,33,0.00,,,0.09,meteohub,2013-03-13 22:55:00,
2013-03-13 17:00:00,69.1,38.8,30.77,SSE,158,3.0,6.0,33,0.00,,,0.09,meteohub,2013-03-13 23:00:00,
2013-03-13 17:06:00,69.4,39.2,30.77,SSE,158,3.0,5.0,33,0.00,,,0.09,meteohub,2013-03-13 23:06:00,
2013-03-13 17:11:00,68.5,37.6,30.77,ENE,68,2.0,5.0,32,0.00,,,0.09,meteohub,2013-03-13 23:11:00,
2013-03-13 17:16:00,67.5,35.8,30.77,NNW,338,3.0,5.0,31,0.00,,,0.09,meteohub,2013-03-13 23:16:00,
2013-03-13 17:22:00,63.5,34.7,30.77,NNW,338,6.0,6.0,34,0.00,,,0.09,meteohub,2013-03-13 23:22:00,
2013-03-13 17:27:00,62.6,33.8,30.77,NNW,338,5.0,6.0,34,0.00,,,0.09,meteohub,2013-03-13 23:27:00,
2013-03-13 17:32:00,61.5,32.9,30.77,SSE,158,1.0,6.0,34,0.00,,,0.09,meteohub,2013-03-13 23:32:00,
2013-03-13 17:37:00,60.6,32.9,30.77,NNW,338,3.0,6.0,35,0.00,,,0.09,meteohub,2013-03-13 23:37:00,
2013-03-13 17:42:00,61.5,33.6,30.77,ENE,68,2.0,5.0,35,0.00,,,0.09,meteohub,2013-03-13 23:42:00,
2013-03-13 17:48:00,62.4,34.5,30.77,NNW,338,6.0,6.0,35,0.00,,,0.09,meteohub,2013-03-13 23:48:00,
2013-03-13 17:53:00,62.4,34.5,30.77,WSW,248,4.0,6.0,35,0.00,,,0.09,meteohub,2013-03-13 23:53:00,
2013-03-13 17:58:00,62.1,34.2,30.77,ENE,68,3.0,8.0,35,0.00,,,0.09,meteohub,2013-03-13 23:58:00,
2013-03-13 18:03:00,62.8,34.0,30.77,NNW,338,2.0,8.0,34,0.00,,,0.09,meteohub,2013-03-14 00:03:00,
2013-03-13 18:08:00,62.8,34.0,30.77,NNW,338,7.0,7.0,34,0.00,,,0.00,meteohub,2013-03-14 00:08:00,
2013-03-13 18:13:00,61.0,33.3,30.77,SSW,202,1.0,6.0,35,0.00,,,0.00,meteohub,2013-03-14 00:13:00,
2013-03-13 18:19:00,62.6,33.8,30.77,NNW,338,4.0,7.0,34,0.00,,,0.00,meteohub,2013-03-14 00:19:00,
2013-03-13 18:24:00,59.7,32.7,30.77,NNW,338,4.0,7.0,36,0.00,,,0.00,meteohub,2013-03-14 00:24:00,
2013-03-13 18:29:00,57.0,31.1,30.77,NNW,338,4.0,6.0,37,0.00,,,0.00,meteohub,2013-03-14 00:29:00,
2013-03-13 18:35:00,55.4,29.7,30.77,NNE,22,2.0,6.0,37,0.00,,,0.00,meteohub,2013-03-14 00:35:00,
2013-03-13 18:40:00,53.6,29.3,30.77,NNE,22,3.0,6.0,39,0.00,,,0.00,meteohub,2013-03-14 00:40:00,
2013-03-13 18:45:00,53.2,28.9,30.77,NNE,22,2.0,4.0,39,0.00,,,0.00,meteohub,2013-03-14 00:45:00,
2013-03-13 18:50:00,52.9,29.3,30.77,SSW,202,1.0,4.0,40,0.00,,,0.00,meteohub,2013-03-14 00:50:00,
2013-03-13 18:55:00,51.3,28.4,30.77,NNE,22,3.0,4.0,41,0.00,,,0.00,meteohub,2013-03-14 00:55:00,
2013-03-13 19:00:00,50.4,27.7,30.77,NNE,22,4.0,4.0,41,0.00,,,0.00,meteohub,2013-03-14 01:00:00,
2013-03-13 19:06:00,50.0,27.9,30.80,NNE,22,2.0,4.0,42,0.00,,,0.00,meteohub,2013-03-14 01:06:00,
2013-03-13 19:11:00,49.5,27.9,30.80,East,90,3.0,4.0,43,0.00,,,0.00,meteohub,2013-03-14 01:11:00,
2013-03-13 19:16:00,49.8,28.2,30.80,WNW,292,2.0,4.0,43,0.00,,,0.00,meteohub,2013-03-14 01:16:00,
2013-03-13 19:21:00,49.5,28.6,30.80,ENE,68,1.0,3.0,44,0.00,,,0.00,meteohub,2013-03-14 01:21:00,
2013-03-13 19:27:00,48.7,28.4,30.80,East,90,0.0,3.0,45,0.00,,,0.00,meteohub,2013-03-14 01:27:00,
2013-03-13 19:32:00,47.7,28.9,30.80,North,0,3.0,3.0,48,0.00,,,0.00,meteohub,2013-03-14 01:32:00,
2013-03-13 19:37:00,47.7,28.4,30.80,NNE,22,0.0,5.0,47,0.00,,,0.00,meteohub,2013-03-14 01:37:00,
2013-03-13 19:42:00,46.9,28.4,30.80,NNE,22,1.0,5.0,48,0.00,,,0.00,meteohub,2013-03-14 01:42:00,
2013-03-13 19:47:00,47.1,28.4,30.80,NNW,338,2.0,5.0,48,0.00,,,0.00,meteohub,2013-03-14 01:47:00,
2013-03-13 19:52:00,47.3,29.1,30.80,East,90,3.0,3.0,49,0.00,,,0.00,meteohub,2013-03-14 01:52:00,
2013-03-13 19:57:00,47.1,28.9,30.80,NNW,338,2.0,3.0,49,0.00,,,0.00,meteohub,2013-03-14 01:57:00,
2013-03-13 20:02:00,46.8,28.6,30.80,ENE,68,2.0,3.0,49,0.00,,,0.00,meteohub,2013-03-14 02:02:00,
2013-03-13 20:08:00,47.3,29.1,30.80,NNW,338,3.0,3.0,49,0.00,,,0.00,meteohub,2013-03-14 02:08:00,
2013-03-13 20:13:00,46.6,28.9,30.80,NNW,338,2.0,3.0,50,0.00,,,0.00,meteohub,2013-03-14 02:13:00,
2013-03-13 20:18:00,46.6,28.9,30.80,NNW,338,4.0,4.0,50,0.00,,,0.00,meteohub,2013-03-14 02:18:00,
2013-03-13 20:23:00,47.5,29.8,30.83,NNW,338,3.0,6.0,50,0.00,,,0.00,meteohub,2013-03-14 02:23:00,
2013-03-13 20:28:00,46.9,29.8,30.83,NNW,338,4.0,6.0,51,0.00,,,0.00,meteohub,2013-03-14 02:28:00,
2013-03-13 20:33:00,46.9,29.3,30.83,NNE,22,0.0,6.0,50,0.00,,,0.00,meteohub,2013-03-14 02:33:00,
2013-03-13 21:17:00,47.3,27.1,30.80,NNE,22,1.0,0.0,45,0.00,,,0.00,meteohub,2013-03-14 03:17:00,
2013-03-13 21:27:00,46.6,26.4,30.80,NNW,338,0.0,3.0,45,0.00,,,0.00,meteohub,2013-03-14 03:27:00,
2013-03-13 21:32:00,46.2,26.6,30.83,ENE,68,2.0,3.0,46,0.00,,,0.00,meteohub,2013-03-14 03:32:00,
2013-03-13 21:37:00,46.6,26.4,30.80,NNE,22,2.0,2.0,45,0.00,,,0.00,meteohub,2013-03-14 03:37:00,
2013-03-13 21:43:00,47.5,26.8,30.80,NNW,338,2.0,3.0,44,0.00,,,0.00,meteohub,2013-03-14 03:43:00,
2013-03-13 21:48:00,47.1,27.0,30.80,NNE,22,2.0,4.0,45,0.00,,,0.00,meteohub,2013-03-14 03:48:00,
2013-03-13 21:53:00,47.8,27.0,30.83,NNW,338,2.0,4.0,44,0.00,,,0.00,meteohub,2013-03-14 03:53:00,
2013-03-13 21:58:00,47.3,26.6,30.83,NE,45,1.0,4.0,44,0.00,,,0.00,meteohub,2013-03-14 03:58:00,
2013-03-13 22:00:00,47.8,27.0,30.83,NNE,22,2.0,3.0,44,0.00,,,0.00,meteohub,2013-03-14 04:00:00,
2013-03-13 22:03:00,47.7,27.3,30.83,NNE,22,2.0,3.0,45,0.00,,,0.00,meteohub,2013-03-14 04:03:00,
2013-03-13 22:04:00,47.5,26.8,30.83,NNE,22,2.0,3.0,44,0.00,,,0.00,meteohub,2013-03-14 04:04:00,
2013-03-13 22:09:00,47.3,26.6,30.83,ENE,68,2.0,4.0,44,0.00,,,0.00,meteohub,2013-03-14 04:09:00,
2013-03-13 22:15:00,47.3,26.1,30.83,ENE,68,3.0,4.0,43,0.00,,,0.00,meteohub,2013-03-14 04:15:00,
2013-03-13 22:20:00,46.6,26.4,30.83,ESE,112,2.0,4.0,45,0.00,,,0.00,meteohub,2013-03-14 04:20:00,
2013-03-13 22:25:00,46.9,26.2,30.83,East,90,0.0,4.0,44,0.00,,,0.00,meteohub,2013-03-14 04:25:00,
2013-03-13 22:30:00,46.8,26.6,30.83,NE,45,1.0,4.0,45,0.00,,,0.00,meteohub,2013-03-14 04:30:00,
2013-03-13 22:36:00,46.0,26.4,30.83,ENE,68,0.0,3.0,46,0.00,,,0.00,meteohub,2013-03-14 04:36:00,
2013-03-13 22:41:00,46.0,25.9,30.83,NNE,22,1.0,3.0,45,0.00,,,0.00,meteohub,2013-03-14 04:41:00,
2013-03-13 22:46:00,46.4,27.3,30.83,NNW,338,4.0,4.0,47,0.00,,,0.00,meteohub,2013-03-14 04:46:00,
2013-03-13 22:51:00,46.2,26.6,30.83,NE,45,2.0,4.0,46,0.00,,,0.00,meteohub,2013-03-14 04:51:00,
2013-03-13 22:57:00,45.9,26.8,30.83,WNW,292,1.0,4.0,47,0.00,,,0.00,meteohub,2013-03-14 04:57:00,
2013-03-13 23:02:00,45.1,26.2,30.83,ESE,112,3.0,4.0,47,0.00,,,0.00,meteohub,2013-03-14 05:02:00,
2013-03-13 23:07:00,45.3,26.2,30.83,ESE,112,4.0,4.0,47,0.00,,,0.00,meteohub,2013-03-14 05:07:00,
2013-03-13 23:12:00,46.8,26.6,30.83,SE,135,2.0,6.0,45,0.00,,,0.00,meteohub,2013-03-14 05:12:00,
2013-03-13 23:17:00,47.1,27.0,30.83,East,90,2.0,6.0,45,0.00,,,0.00,meteohub,2013-03-14 05:17:00,
2013-03-13 23:22:00,46.6,26.4,30.83,ESE,112,3.0,6.0,45,0.00,,,0.00,meteohub,2013-03-14 05:22:00,
2013-03-13 23:27:00,46.0,27.0,30.83,NNW,338,3.0,4.0,47,0.00,,,0.00,meteohub,2013-03-14 05:27:00,
2013-03-13 23:32:00,45.9,26.8,30.83,WNW,292,0.0,4.0,47,0.00,,,0.00,meteohub,2013-03-14 05:32:00,
2013-03-13 23:37:00,45.5,25.9,30.83,NNE,22,0.0,4.0,46,0.00,,,0.00,meteohub,2013-03-14 05:37:00,
2013-03-13 23:42:00,46.4,26.2,30.83,East,90,0.0,4.0,45,0.00,,,0.00,meteohub,2013-03-14 05:42:00,
2013-03-13 23:48:00,46.2,26.6,30.83,NNE,22,2.0,3.0,46,0.00,,,0.00,meteohub,2013-03-14 05:48:00,
2013-03-13 23:53:00,46.4,25.7,30.83,ESE,112,3.0,3.0,44,0.00,,,0.00,meteohub,2013-03-14 05:53:00,
2013-03-13 23:58:00,47.1,26.4,30.83,NNW,338,2.0,4.0,44,0.00,,,0.00,meteohub,2013-03-14 05:58:00,